Regional Weather Roundup
Issued by NWS Jackson, KY

Home | Current Version | Previous Version | Text Only | Print | Product List | Glossary On
Versions: 1 2 3 4 5 6 7 8 9 10 11 12 13 14 15 16 17 18 19 20 21 22 23 24 25 26 27 28 29 30 31 32 33 34 35 36 37 38 39 40 41 42 43 44 45 46 47 48 49 50
000
ASUS43 KJKL 020519
RWRJKL

EAST KENTUCKY HOURLY WEATHER ROUNDUP
NATIONAL WEATHER SERVICE JACKSON KY
100 AM EDT SAT AUG 02 2014

NOTE: "FAIR" INDICATES FEW OR NO CLOUDS BELOW 12,000 FEET WITH
NO SIGNIFICANT WEATHER AND/OR OBSTRUCTIONS TO VISIBILITY.

* THESE REPORTS ARE NOT UNDER NWS QUALITY CONTROL AND MAY NOT
  REPORT WEATHER SUCH AS PRECIPITATION AND FOG.

KYZ079-080-083-085-087-088-110-112-115-119-120-020600
...EASTERN KENTUCKY...

CITY           SKY/WX    TMP DP  RH WIND       PRES   REMARKS
JACKSON        MOCLDY    67  65  93 CALM      30.10S FOG
LONDON         CLOUDY    69  63  81 SE5       30.10R
SOMERSET*      MOCLDY    68  66  94 CALM      30.09S
MONTICELLO*    CLEAR     64  63  97 CALM      30.09S FOG
WILLIAMSBURG*    N/A     66  66 100 CALM      30.09
MIDDLESBORO*   PTCLDY    67  64  90 CALM      30.10F
HARLAN APT*    PTCLDY    68  63  83 MISG      30.12S
BLACK MTN*       N/A     59  55  88 S2          N/A
PIKEVILLE APT* CLEAR     68  59  73 SE7       30.12S
BIG SANDY*     PTCLDY    67  61  79 SE6       30.11F
MOREHEAD APT*    N/A     70  64  83 CALM      30.11S
ASHLAND*       PTCLDY    70  64  83 CALM      30.07
$$

KYZ035-036-041-042-044-050-067-078-099-020600
...CENTRAL KENTUCKY...

CITY           SKY/WX    TMP DP  RH WIND       PRES   REMARKS
MT STERLING*   PTCLDY    66  64  94 E3        30.09F
FLEMING/MASON* MOCLDY    70  63  78 CALM      30.09S
DANVILLE*      CLEAR     63  61  94 CALM      30.09S
RICHMOND*      MOCLDY    66  63  88 CALM      30.08R
LEXINGTON      PTCLDY    69  61  75 CALM      30.09R
FRANKFORT      MOCLDY    65  62  90 CALM      30.07R
$$

KYZ091>093-OHZ055-061-077-WVZ005-015-034-035-042-020600
...SOUTHERN OHIO/WEST VIRGINIA...

CITY           SKY/WX    TMP DP  RH WIND       PRES   REMARKS
COVINGTON      PTCLDY    71  61  70 N3        30.09R
COLUMBUS       PTCLDY    71  62  73 E6        30.08S
DAYTON         MOCLDY    68  63  84 NE3       30.10S
WILMINGTON     PTCLDY    62  60  93 CALM      30.09S
HUNTINGTON     CLOUDY    68  65  90 SE7       30.08S
CHARLESTON     MOCLDY    66  64  93 CALM      30.11S
PINEVILLE*     CLEAR     60  60 100 MISG      30.21S
BECKLEY        MOCLDY    61  53  75 SE6       30.19S
BLUEFIELD      MOCLDY    62  56  80 SE8       30.20F
$$

VAZ002-007-008-TNZ017-027-036-066-071-020600
...SOUTHWEST VIRGINIA/EAST TENNESSEE...

CITY           SKY/WX    TMP DP  RH WIND       PRES   REMARKS
WISE*          CLEAR     63  54  72 S5        30.19R
JONESVILLE*      N/A     63  63 100 CALM      30.14S
ABINGDON*      CLEAR     63  58  83 E5        30.17R
BRISTOL        PTCLDY    63  57  81 CALM      30.13S
KNOXVILLE      MOCLDY    75  66  73 NW3       30.07R
OAK RIDGE      CLOUDY    74  66  76 CALM      30.09R
CROSSVILLE     CLOUDY    69  64  84 CALM      30.12S
NASHVILLE      CLOUDY    78  66  66 NW3       30.05S
$$

...KEY TO REMARKS...
VSB - VISIBILITY IN MILES
WCI - WIND CHILL INDEX
HX  - HEAT INDEX

$$



USA.gov is the U.S. government's official web portal to all federal, state and local government web resources and services.